Regional Weather Roundup
Issued by NWS

Home | Current Version | Previous Version | Text Only | Print | Product List | Glossary On
Versions: 1 2 3 4 5 6 7 8 9 10 11 12 13 14 15 16 17 18 19 20 21 22 23 24 25 26 27 28 29 30 31 32 33 34 35 36 37 38 39 40 41 42 43 44 45 46 47 48 49 50
461
ASUS43 KDMX 200106
RWRIA

WEATHER ROUNDUP FOR IOWA
NATIONAL WEATHER SERVICE DES MOINES IA
700 PM CST FRI JAN 19 2018

NOTE: "FAIR" INDICATES FEW OR NO CLOUDS BELOW 12,000 FEET WITH NO
SIGNIFICANT WEATHER AND/OR OBSTRUCTIONS TO VISIBILITY.

* - THESE STATIONS ARE NOT NWS STATIONS...THUS NOT UNDER NWS
QUALITY CONTROL.  THEY ALSO DO NOT REPORT WEATHER SUCH
AS PRECIPITATION OR FOG.

IAZ001>003-012>014-020>022-031>034-043>046-200200-
   NORTHWEST IOWA

CITY           SKY/WX    TMP DP  RH WIND       PRES   REMARKS
CARROLL *      CLOUDY    39  30  70 SW21      29.67S WCI  29
CHEROKEE *     CLOUDY    38  29  70 CALM      29.67R
DENISON *      CLOUDY    37  28  70 SW8       29.70R WCI  31
LE MARS *      CLOUDY    41  32  70 CALM      29.67R
ORANGE CITY *  CLOUDY    37  34  87 W3        29.66R
SHELDON *      CLOUDY    36  34  93 NW7       29.64R WCI  30
SIOUX CITY     CLOUDY    43  33  68 NW10      29.68R
SPENCER        CLOUDY    35  30  82 W7        29.65R WCI  29
STORM LAKE *   CLOUDY    41  28  60 W8        29.66R
$$

IAZ055>058-069>071-079>083-090>094-200200-
   SOUTHWEST IOWA

CITY           SKY/WX    TMP DP  RH WIND       PRES   REMARKS
ATLANTIC *     CLOUDY    36  32  87 SW9       29.72R WCI  29
AUDUBON *      CLOUDY    37  30  75 S9        29.71R WCI  31
CLARINDA *     CLOUDY    39  30  70 SW8         N/A  WCI  34
COUNCIL BLFS * CLOUDY    41  30  65 SW13G21   29.72R
CRESTON *      CLOUDY    37  28  70 SW8       29.74R WCI  31
HARLAN  *      CLOUDY    36  32  87 SW9       29.74R WCI  29
LAMONI         CLOUDY    43  27  53 SW16      29.73R
RED OAK *      CLOUDY    37  30  75 S8        29.74R WCI  31
SHENANDOAH *   CLOUDY    37  30  75 SW5       29.75R WCI  34
$$

IAZ047>049-059>061-072>074-084-200200-
   CENTRAL IOWA

CITY           SKY/WX    TMP DP  RH WIND       PRES   REMARKS
AMES           CLOUDY    40  31  70 SW13      29.69R WCI  32
ANKENY *       CLOUDY    43  27  52 SW14G20   29.70R
BOONE *        CLOUDY    39  30  70 SW12      29.67R WCI  32
CHARITON *     CLOUDY    39  28  65 S13       29.72R WCI  32
DES MOINES     CLOUDY    42  27  55 SW9G20    29.70R
GRINNELL*      CLOUDY    39  29  65 S15       29.70R WCI  31
KNOXVILLE *    CLOUDY    41  27  56 S14       29.69S
MARSHALLTOWN   CLOUDY    39  29  67 SW9       29.67R WCI  33
NEWTON *       CLOUDY    41  28  60 SW13G23   29.70S
PELLA *        CLOUDY    41  28  59 SW15      29.72R
PERRY *          N/A     36  28  73 SW9       29.70R WCI  29
$$

IAZ004>006-015-016-023>025-035-036-200200-
   NORTH CENTRAL IOWA

CITY           SKY/WX    TMP DP  RH WIND       PRES   REMARKS
ALGONA *       CLOUDY    36 N/A N/A W7        29.64R WCI  30
CLARION *      CLOUDY    36  36 100 SW9       29.66R WCI  29
ESTHERVILLE    CLOUDY    36  32  85 W9        29.63R WCI  29
FORT DODGE *   CLOUDY    37  30  75 SW10      29.67  WCI  30
MASON CITY     CLOUDY    38  30  73 W9        29.64R WCI  31
FOREST CITY *    N/A     36  32  87 SW8       29.63R WCI  29
WEBSTER CITY * CLOUDY    39  32  75 SW14      29.64R WCI  31
IOWA FALLS *     N/A     38  32  78 SW12      29.67R WCI  31
$$

IAZ007>011-017>019-026>030-037>042-050>054-066-200200-
   NORTHEAST IOWA

CITY           SKY/WX    TMP DP  RH WIND       PRES   REMARKS
CEDAR RAPIDS     N/A     41  28  60 S12       29.68R
CHARLES CITY *   N/A     37  32  81 SW9       29.64R WCI  31
CLINTON *        N/A     40  29  64 SW17      29.71S WCI  31
DECORAH *        N/A     39  30  70 SW9G15    29.62R WCI  33
DUBUQUE          N/A     37  27  67 SW22      29.64R WCI  26
MONTICELLO *     N/A     39  28  65 SW10      29.68R WCI  32
OELWEIN *        N/A     36  34  93 SW10      29.66R WCI  28
WATERLOO         N/A     36  28  73 SW6       29.66R WCI  31
$$

IAZ064-065-067-068-078-200200-
   EAST CENTRAL IOWA

CITY           SKY/WX    TMP DP  RH WIND       PRES   REMARKS
DAVENPORT        N/A     44  27  51 SW18      29.72F
IOWA CITY        N/A     42  27  55 S8        29.72S
MT. PLEASANT * CLOUDY    41  28  60 S15       29.75R
MUSCATINE *      N/A     41  28  60 S8        29.74S
QUAD CITIES      N/A     43  29  57 SW15G22   29.71F
$$

IAZ062-063-075>077-085>089-095>099-200200-
   SOUTHEAST IOWA

CITY           SKY/WX    TMP DP  RH WIND       PRES   REMARKS
BURLINGTON     CLOUDY    42  27  55 S17       29.76S
FAIRFIELD *    CLOUDY    41  28  60 S15       29.73R
FORT MADISON * CLOUDY    45  28  53 S13G21    29.78S
KEOKUK *       PTCLDY    45  27  49 S12G17    29.78S
OSKALOOSA *      N/A     38  29  69 SW13      29.72S WCI  30
OTTUMWA        CLOUDY    43  27  53 SW16      29.72R
WASHINGTON *   CLOUDY    41  30  65 SW17      29.73S
$$

ABBREVIATIONS USED IN REMARKS
   TC - TEMPERATURES IN CELSIUS
  WCI - WIND CHILL INDEX
   HX - HEAT INDEX
  VSB - VISIBILITY
$$





USA.gov is the U.S. government's official web portal to all federal, state and local government web resources and services.